Regional Weather Roundup
Issued by NWS

Home | Current Version | Previous Version | Graphics & Text | Print | Product List | Glossary On
Versions: 1 2 3 4 5 6 7 8 9 10 11 12 13 14 15 16 17 18 19 20 21 22 23 24 25 26 27 28 29 30 31 32 33 34 35 36 37 38 39 40 41 42 43 44 45 46 47 48 49 50
000
ASUS43 KMKX 251510
RWRWI

WISCONSIN REGIONAL WEATHER ROUNDUP
NATIONAL WEATHER SERVICE MILWAUKEE/SULLIVAN WI
1000 AM CDT THU MAY 25 2017

NOTE: "FAIR" INDICATES FEW OR NO CLOUDS BELOW 12,000 FEET WITH NO
SIGNIFICANT WEATHER AND/OR OBSTRUCTIONS TO VISIBILITY.

WIZ001-002-006>008-014>016-023>028-251600-
NORTHWEST WISCONSIN

CITY           SKY/WX    TMP DP  RH WIND       PRES   REMARKS
SUPERIOR ARPT  NOT AVBL
ASHLAND        SUNNY     55  46  71 N6        29.76F
HAYWARD        MOSUNNY   61  45  55 CALM      29.73F
SIREN          CLOUDY    57  49  72 CALM      29.72F
CUMBERLAND     PTSUNNY   55  45  67 CALM      29.72F
RICE LAKE      MOSUNNY   61  46  59 SE3       29.74F
CHETEK         SUNNY     61  47  61 CALM      29.72F
LADYSMITH      MOSUNNY   62  49  63 CALM      29.75S
EAU CLAIRE     MOSUNNY   61  48  62 E9        29.71F
MENOMONIE      MOSUNNY   60  51  72 S3        29.73S
NEW RICHMOND   MOSUNNY   61  49  66 S6        29.72F
OSCEOLA        MOSUNNY   61  50  67 SE10G18   29.74F
$$

WIZ003>005-009-010-017-018-251600-
NORTH CENTRAL WISCONSIN

CITY           SKY/WX    TMP DP  RH WIND       PRES   REMARKS
MANITOWISH WTR SUNNY     60  48  65 NE7       29.73F
ARBOR VITAE    SUNNY     62  49  62 CALM      29.72F
WOODRUFF       SUNNY     62  49  62 CALM      29.72F
RHINELANDER    SUNNY     62  49  62 NE8       29.73F
EAGLE RIVER    SUNNY     61  45  55 NE5       29.72F
LAND O LAKES   MOSUNNY   60  47  61 NW6       29.76S
PHILLIPS       MOSUNNY   60  50  69 CALM      29.73S
TOMAHAWK       SUNNY     61  49  64 NE5       29.72F
MEDFORD        PTSUNNY   59  51  74 N5        29.72S
MERRILL        SUNNY     62  51  66 NE5       29.71F
$$

WIZ029-030-035-036-043>047-251600-
CENTRAL WISCONSIN

CITY           SKY/WX    TMP DP  RH WIND       PRES   REMARKS
WAUSAU         SUNNY     63  52  67 E8        29.69S
MOSINEE        MOSUNNY   63  54  72 E8        29.71S
MARSHFIELD     MOSUNNY   62  51  67 VRB3      29.70S
STEVENS POINT  MOSUNNY   60  51  71 NE10      29.70S
WAUPACA        SUNNY     63  52  67 NE8       29.69S
WAUTOMA        MOSUNNY   60  52  74 VRB6      29.69S
WISC RAPIDS    SUNNY     63  52  67 VRB3      29.71S
CAMP DOUGLAS   PTSUNNY   59  52  77 VRB3      29.70S
$$

WIZ011>013-019>022-031-037>040-048>050-251600-
NORTHEAST WISCONSIN

CITY           SKY/WX    TMP DP  RH WIND       PRES   REMARKS
ANTIGO         SUNNY     60  52  73 E8        29.71F
SHAWANO        SUNNY     62  52  67 NE5       29.70F
OCONTO         MOSUNNY   62  51  69 NE7       29.69S
STURGEON BAY   CLOUDY    56  50  80 N8        29.69S
GREEN BAY      SUNNY     59  53  80 NE15      29.69S
MANITOWOC      PTSUNNY   59  52  77 N12       29.67S
APPLETON       PTSUNNY   59  50  72 N12G17    29.67S
CLINTONVILLE   SUNNY     61  50  67 NE9       29.69F
OSHKOSH        SUNNY     57  51  80 NE13      29.67S
$$

WIZ032>034-041-042-053>061-251600-
SOUTHWEST WISCONSIN

CITY           SKY/WX    TMP DP  RH WIND       PRES   REMARKS
LA CROSSE      CLOUDY    58  52  80 NW6       29.71F
SPARTA         PTSUNNY   56  51  83 CALM      29.72F
VIROQUA        CLOUDY    54  50  89 MISG      29.71S
BOSCOBEL       CLOUDY    58  50  75 VRB5      29.71S
PRAIRIE DU CHI CLOUDY    56  48  74 CALM      29.71S
PLATTEVILLE    CLOUDY    55  54  95 N8        29.70S
$$

WIZ056-057-062-063-064-067-068-251600-
SOUTH CENTRAL WISCONSIN

CITY           SKY/WX    TMP DP  RH WIND       PRES   REMARKS
REEDSBURG      CLOUDY    55  52  90 N6        29.69F
BARABOO/DELLS  CLOUDY    56  50  79 NE6       29.69F
LONE ROCK      CLOUDY    56  50  80 NW3       29.70F
MINERAL POINT  CLOUDY    55  54  94 N8        29.70S
MADISON        CLOUDY    55  51  86 N7        29.68R
MIDDLETON      CLOUDY    56  52  87 N8        29.69F
WATERTOWN      CLOUDY    55  53  94 N7        29.66S
MONROE         CLOUDY    55  52  88 N6        29.68S
JANESVILLE     CLOUDY    57  54  88 N14       29.66R
$$

WIZ051-052-058>065-066-070>072-251600-
SOUTHEAST WISCONSIN

CITY           SKY/WX    TMP DP  RH WIND       PRES   REMARKS
MILWAUKEE      PTSUNNY   62  53  72 N10       29.64S
WAUKESHA       CLOUDY    57  52  82 N12       29.65F
MILWAUKEE/TIMM PTSUNNY   61  50  67 N13       29.65S
RACINE         MOSUNNY   59  51  75 N17G28    29.64S
KENOSHA        CLOUDY    58  52  80 N8        29.63S
FOND DU LAC    CLOUDY    55  50  83 N12       29.68S
SHEBOYGAN      CLOUDY    61  55  81 N13G22    29.65F
WEST BEND      PTSUNNY   59  54  82 N12       29.65S
JUNEAU         CLOUDY    54  51  89 N6        29.69R
$$

LSZ147-162-251600-
LAKE SUPERIOR

STATION/POSITION TIME  TEMP    WIND        PRES    WAVE
                       AIR SEA DIR/SP/G            HT/PER
                 (UTC) (F)     (DEG/KT/KT) (MB)    (FT/S)
$$

LMZ867-665-643>646-251600-
LAKE MICHIGAN

STATION/POSITION TIME  TEMP    WIND        PRES    WAVE
                       AIR SEA DIR/SP/G            HT/PER
                 (UTC) (F)     (DEG/KT/KT) (MB)    (FT/S)
$$

TC  - TEMPERATURE IN CELSIUS
VSB - VISIBILITY IN STATUTE MILES
WCI - WIND CHILL INDEX
HX  - HEAT INDEX





USA.gov is the U.S. government's official web portal to all federal, state and local government web resources and services.